This is the latest recevied weather packets stored in our database for station/object W7BTL. If no packets are shown the sender has not sent any weather packets the latest 10 day(s).
| Time | Temp. | Humidity | Pressure | Rain* | Wind** | Luminosity | Snow |
|---|---|---|---|---|---|---|---|
| 1788642067 | 35° C | 21% | 1012.2 hPa | 0 mm | - | 942 W/m² | - |
| 1788641767 | 34.44° C | 25% | 1012.3 hPa | 0 mm | - | 954 W/m² | - |
| 1788641466 | 35° C | 24% | 1012.3 hPa | 0 mm | - | 943 W/m² | - |
| 1788641161 | 35° C | 24% | 1012.4 hPa | 0 mm | - | 951 W/m² | - |
| 1788640856 | 34.44° C | 23% | 1012.3 hPa | 0 mm | - | 952 W/m² | - |
| 1788640556 | 33.89° C | 27% | 1012.4 hPa | 0 mm | - | 911 W/m² | - |
| 1788640251 | 33.89° C | 27% | 1012.5 hPa | 0 mm | - | 964 W/m² | - |
| 1788639946 | 33.89° C | 28% | 1012.4 hPa | 0 mm | - | 968 W/m² | - |
| 1788639642 | 33.89° C | 30% | 1012.5 hPa | 0 mm | - | 969 W/m² | - |
| 1788639338 | 33.89° C | 30% | 1012.7 hPa | 0 mm | - | 978 W/m² | - |
| 1788639037 | 33.89° C | 28% | 1012.7 hPa | 0 mm | - | 979 W/m² | - |
| 1788638732 | 33.89° C | 26% | 1012.6 hPa | 0 mm | - | 985 W/m² | - |
| 1788638432 | 33.89° C | 25% | 1012.9 hPa | 0 mm | - | 987 W/m² | - |
| 1788638127 | 33.89° C | 27% | 1013 hPa | 0 mm | - | 986 W/m² | - |
| 1788637822 | 33.89° C | 25% | 1013.2 hPa | 0 mm | - | 990 W/m² | - |
| 1788637522 | 33.33° C | 28% | 1013.2 hPa | 0 mm | - | 990 W/m² | - |
| 1788637222 | 32.78° C | 27% | 1013.3 hPa | 0 mm | - | 886 W/m² | - |
| 1788636922 | 32.78° C | 28% | 1013.3 hPa | 0 mm | - | 991 W/m² | - |
| 1788636617 | 32.78° C | 27% | 1013 hPa | 0 mm | - | 988 W/m² | - |
| 1788636312 | 32.22° C | 26% | 1013.3 hPa | 0 mm | - | 985 W/m² | - |
| 1788636008 | 31.67° C | 30% | 1013.3 hPa | 0 mm | - | 982 W/m² | - |
| 1788635707 | 31.67° C | 31% | 1013.6 hPa | 0 mm | - | 976 W/m² | - |
| 1788635406 | 31.67° C | 29% | 1013.3 hPa | 0 mm | - | 968 W/m² | - |
| 1788635104 | 31.67° C | 31% | 1013.5 hPa | 0 mm | - | 964 W/m² | - |
| 1788634803 | 31.67° C | 29% | 1013.4 hPa | 0 mm | - | 959 W/m² | - |
* Rain latest hour (hover to see other rain measurements)
** Current wind speed in m/s (hover to see current wind gust speed)